User: anonymous   Login
Location: Unspecified
(0.0000°N, 0.0000°E)
Time: 12:52:52
(UTC+00:00)
Language:

NOAA 17 - Orbit

View from above orbital plane
View from above orbital plane
View from above satellite
View from above satellite

Ground track
Ground track

The orbit data is extracted from the following two-line orbital elements,

1 27453U 02032A   17349.91115385 -.00000002 +00000-0 +16990-4 0  9997
2 27453 098.4609 307.6081 0012368 032.6009 327.5933 14.25002685804630
Epoch (UTC): 15 December 2017 21:52:03
Eccentricity: 0.0012368
inclination: 98.4609°
perigee height: 799 km
apogee height: 817 km
right ascension of ascending node: 307.6081°
argument of perigee: 32.6009°
revolutions per day: 14.25002685
mean anomaly at epoch: 327.5933°
orbit number at epoch: 80463

The dashed part of the orbit path shows where the satellite is in the earth's shadow,  

DLR